[[{"header":{"parameterUnit":"m.s-1","parameterCategory":1,"la1":30.2992,"la2":30.254,"lo1":-89.0895,"lo2":-89.0443,"dy":0.0025,"dx":0.0025,"nx":19,"ny":19,"refTime":"2026-05-17T21:00:00:Z","depth":0,"parameterNumber":2,"parameterNumberName":"U-component_of_WINDS"},"data":[0,0,0,-4.4325,-4.4329,-4.4496,-4.4497,-4.4697,-4.4699,0,0,0,0,0,0,0,0,0,0,0,-4.4267,-4.4268,-4.4325,-4.4329,-4.4496,-4.4497,-4.4697,-4.4699,0,0,0,0,0,0,0,0,0,0,0,-4.4267,-4.4268,-4.4269,-4.433,-4.4496,-4.4497,-4.4697,-4.4575,0,0,0,0,0,0,0,0,0,0,-4.4415,-4.4353,-4.4268,-4.4269,-4.433,-4.4496,-4.4497,-4.4569,-4.4583,-4.4616,0,-4.4643,0,-4.4674,-4.4711,-4.4712,0,0,0,-4.4335,-4.4342,-4.4395,-4.427,-4.4332,-4.4495,-4.4422,-4.4577,-4.4592,-4.4633,-4.4646,-4.4654,-4.4677,-4.4713,-4.4714,-4.4886,-4.4886,0,0,-4.4326,-4.4293,-4.4385,-4.4404,-4.4378,-4.4417,-4.4427,-4.4586,-4.4598,-4.4647,-4.4659,-4.4681,-4.4714,-4.4715,-4.4885,-4.4886,0,0,0,-4.4295,-4.4286,-4.4335,-4.4396,-4.4427,-4.4422,-4.4434,-4.4591,-4.461,-4.4661,-4.4683,-4.4715,-4.4717,-4.4885,-4.4885,-4.4878,0,0,0,-4.429,-4.4268,-4.4331,-4.4312,-4.4424,-4.4511,-4.4434,-4.4599,-4.4618,-4.4682,-4.4715,-4.4719,-4.4884,-4.4885,-4.4877,-4.4878,0,0,0,-4.4259,-4.4265,-4.4286,-4.431,-4.4381,-4.4509,-4.4537,-4.4603,-4.4631,-4.4712,-4.472,-4.4884,-4.4885,-4.4876,-4.4877,-4.4913,0,0,0,-4.4217,-4.4276,-4.4285,-4.4361,-4.4379,-4.4504,-4.4537,-4.4631,-4.47,-4.4716,-4.4884,-4.4885,-4.4876,-4.4876,-4.4912,-4.4935,-4.4942,0,0,-4.4273,-4.4282,-4.4329,-4.4342,-4.4457,-4.4481,-4.4595,-4.4689,-4.4728,-4.4831,-4.4836,-4.4877,-4.4877,-4.4913,-4.5,-4.5005,0,0,0,-4.4336,-4.4369,-4.4407,-4.4472,-4.4547,-4.4611,-4.4692,-4.4728,-4.4817,-4.4774,-4.4903,-4.4903,-4.4926,-4.4938,-4.4943,-4.4963,-4.4891,-4.4891,-4.489,-4.4365,-4.4412,-4.4494,-4.4562,-4.4625,-4.471,-4.4765,-4.4828,-4.4856,-4.4887,-4.4915,-4.4963,-4.4976,-4.498,-4.5001,-4.4935,-4.4935,-4.4935,-4.4935,-4.445,-4.4503,-4.4544,-4.4636,-4.4687,-4.4765,-4.4851,-4.4869,-4.495,-4.4944,-4.4966,-4.4952,-4.4985,-4.5006,-4.4935,-4.4935,-4.4935,-4.4935,-4.4935,-4.4471,-4.4505,-4.4549,-4.465,-4.4722,-4.4791,-4.4867,-4.4911,-4.4953,-4.4975,-4.5011,-4.5011,-4.5014,-4.499,-4.499,-4.4991,-4.4991,-4.4991,-4.4991,-4.4473,-4.4524,-4.4583,-4.467,-4.4719,-4.4789,-4.4878,-4.4928,-4.4994,-4.502,-4.502,-4.5044,-4.4981,-4.4961,-4.4994,-4.4993,-4.4993,-4.4992,-4.4992,-4.4536,-4.453,-4.462,-4.4669,-4.4776,-4.4846,-4.4904,-4.5001,-4.5049,-4.5085,-4.5108,-4.5054,-4.5065,-4.5062,-4.5046,-4.5098,-4.5098,-4.5098,-4.5098,-4.4551,-4.4563,-4.4666,-4.4742,-4.4821,-4.4883,-4.4985,-4.5057,-4.513,-4.5163,-4.5163,-4.5148,-4.5142,-4.5157,-4.5151,-4.5137,-4.5211,-4.5211,-4.5211,-4.4591,-4.4613,-4.4689,-4.4762,-4.485,-4.4926,-4.5023,-4.5109,-4.5191,-4.5217,-4.5189,-4.5184,-4.516,-4.515,-4.5169,-4.516,-4.5135,0,0]},{"header":{"parameterUnit":"m.s-1","parameterCategory":1,"la1":30.2992,"la2":30.254,"lo1":-89.0895,"lo2":-89.0443,"dy":0.0025,"dx":0.0025,"nx":19,"ny":19,"refTime":"2026-05-17T21:00:00:Z","depth":0,"parameterNumber":3,"parameterNumberName":"V-component_of_WINDS"},"data":[0,0,0,4.7426,4.7425,4.7417,4.7417,4.7406,4.7406,0,0,0,0,0,0,0,0,0,0,0,4.7429,4.7429,4.7426,4.7425,4.7417,4.7417,4.7406,4.7406,0,0,0,0,0,0,0,0,0,0,0,4.7429,4.7429,4.7429,4.7425,4.7417,4.7417,4.7406,4.7412,0,0,0,0,0,0,0,0,0,0,4.7421,4.7426,4.7429,4.7429,4.7425,4.7417,4.7417,4.7413,4.7412,4.7411,0,4.7411,0,4.7408,4.7406,4.7406,0,0,0,4.7424,4.7426,4.7423,4.7429,4.7425,4.7417,4.742,4.7412,4.7412,4.741,4.7411,4.741,4.7408,4.7406,4.7406,4.7406,4.7406,0,0,4.7425,4.7428,4.7423,4.7422,4.7425,4.7421,4.742,4.7412,4.7412,4.7411,4.741,4.7408,4.7406,4.7406,4.7406,4.7406,0,0,0,4.7427,4.7429,4.7425,4.7423,4.7421,4.742,4.742,4.7413,4.7411,4.741,4.7408,4.7406,4.7405,4.7406,4.7406,4.7413,0,0,0,4.7427,4.743,4.7426,4.7428,4.7422,4.7417,4.7421,4.7412,4.7411,4.7408,4.7406,4.7405,4.7405,4.7406,4.7412,4.7415,0,0,0,4.7429,4.743,4.7429,4.7428,4.7424,4.7417,4.7415,4.7412,4.741,4.7406,4.7405,4.7405,4.7406,4.7412,4.7415,4.7417,0,0,0,4.7433,4.7434,4.7429,4.7431,4.7424,4.7422,4.7415,4.7413,4.741,4.7405,4.7405,4.7406,4.7412,4.7414,4.7417,4.742,4.7422,0,0,4.7437,4.7435,4.7435,4.7431,4.743,4.7423,4.7423,4.7416,4.7412,4.7408,4.7408,4.7412,4.7415,4.7417,4.7429,4.743,0,0,0,4.7438,4.7438,4.7437,4.7435,4.7431,4.7428,4.7422,4.7419,4.7416,4.7411,4.7414,4.7415,4.7416,4.7417,4.7419,4.742,4.7406,4.7406,4.7406,4.7448,4.7444,4.7445,4.744,4.7438,4.7432,4.7431,4.7426,4.7421,4.7422,4.7421,4.7429,4.7431,4.7432,4.7433,4.7422,4.7422,4.7422,4.7422,4.7454,4.7454,4.7449,4.7449,4.7444,4.7443,4.7438,4.7435,4.7434,4.7429,4.743,4.7426,4.7433,4.7434,4.7423,4.7423,4.7423,4.7423,4.7423,4.746,4.746,4.7458,4.7456,4.7455,4.745,4.7449,4.7445,4.744,4.7441,4.744,4.744,4.744,4.7441,4.7441,4.7441,4.7441,4.7441,4.7441,4.7467,4.7465,4.7466,4.7463,4.7462,4.746,4.7455,4.7454,4.7452,4.7449,4.7449,4.7444,4.7435,4.7433,4.7442,4.7442,4.7442,4.7442,4.7442,4.7475,4.7473,4.7474,4.7473,4.747,4.747,4.7465,4.7464,4.7462,4.7462,4.7458,4.7452,4.7449,4.7448,4.7447,4.7459,4.7459,4.7459,4.7459,4.7481,4.748,4.7481,4.748,4.7479,4.7475,4.7477,4.7473,4.7469,4.7468,4.7466,4.7463,4.7463,4.7461,4.7459,4.7458,4.7472,4.7473,4.7473,4.7486,4.7485,4.7487,4.7484,4.7482,4.748,4.7482,4.7482,4.7477,4.7473,4.7468,4.7467,4.7463,4.7462,4.7457,4.7456,4.7453,0,0]}]]